Current weather by "City, St" or "zip code"  
 

Current Conditions: Ottawa Municipal Airport, KS

Overcast


16.0 F

Last Updated on Jan 19 2022, 10:50 pm CST
Humidity: 57%
Wind Speed: N 12.7 G 21.9 mph
Barometer 30.58 in
Dewpoint: 3.2 F
Visibility: 10.00 mi
Precip: --
Heat Index: NA
Wind Chill: 2 F
Current conditions at:

Ottawa Municipal Airport, KS (KOWI)

Lat: 38.5409 Lon: 95.2542

Local Radar Image active severe weather and emergency alerts image image weather storm and storm spotter reports image weather observation monitoring service image
Local
Radar
Active
Alerts
Storm Reports Obs
Monitoring

Sign-up For Email & Text Message Weather Alert Notification Services



Advertise Here

Observation History for Ottawa Municipal Airport, KS


Time Wind
(mph)
Vis
(mi)
Weather Precip (in) Temperature (F) Relative
Humidity
Wind
Chill
(F)
Heat
Index
(F)
Pressure
Air Dwpt altimeter
(in)
sea level
(mb)
Rmks
10:50 pm CST N 12.7 G 21.9 10.00 Overcast -- 16.0 3.2 57% 2 NA 30.58 M
9:55 pm CST N 16.1 G 29.9 10.00 Overcast -- 16.0 3.2 57% 1 NA 30.56 M
8:50 pm CST N 16.1 G 25.3 10.00 Overcast -- 18.0 3.2 53% 3 NA 30.54 M
7:50 pm CST N 16.1 G 27.6 10.00 Overcast -- 18.0 5.0 58% 3 NA 30.52 M
6:50 pm CST N 17.3 G 26.5 10.00 Overcast -- 18.0 5.0 58% 3 NA 30.49 M
5:55 pm CST N 18.4 G 27.6 10.00 Overcast -- 19.0 5.0 53% 4 NA 30.45 M
4:50 pm CST N 24.2 10.00 Mostly Cloudy and Breezy -- 19.0 6.8 58% 2 NA 30.42 M
3:55 pm CST N 18.4 G 27.6 10.00 Overcast -- 21.0 6.8 54% 6 NA 30.39 M
2:50 pm CST N 18.4 G 27.6 10.00 Overcast -- 23.0 8.6 54% 9 NA 30.36 M
1:55 pm CST N 21.9 G 31.1 10.00 Partly Cloudy and Breezy -- 25.0 8.6 50% 10 NA 30.33 M
12:55 pm CST N 21.9 G 31.1 10.00 Fair and Breezy -- 23.0 6.8 50% 8 NA 30.33 M
11:55 am CST N 23.0 G 31.1 10.00 Partly Cloudy and Breezy -- 25.0 8.6 50% 10 NA 30.33 M
10:50 am CST N 23.0 G 29.9 10.00 Fair and Breezy -- 25.0 10.4 54% 10 NA 30.32 M
9:50 am CST N 20.7 G 29.9 10.00 Fair and Breezy -- 25.0 12.2 59% 11 NA 30.28 M
8:50 am CST N 20.7 G 27.6 10.00 Fair and Breezy -- 27.0 15.8 64% 13 NA 30.22 M
7:55 am CST N 18.4 G 29.9 10.00 Fair -- 27.0 15.8 64% 14 NA 30.17 M
6:40 am CST N 18.4 10.00 Partly Cloudy -- 28.0 23.0 80% 15 NA 30.12 M
5:55 am CST N 13.8 G 24.2 10.00 Overcast -- 32.0 26.6 80% 22 NA 30.08 M
4:50 am CST N 16.1 G 25.3 10.00 Overcast -- 34.0 28.4 81% 24 NA 30.02 M
3:50 am CST N 16.1 G 25.3 10.00 Overcast -- 36.0 28.4 75% 26 NA 29.99 M
2:55 am CST N 18.4 G 25.3 10.00 Mostly Cloudy -- 37.0 33.8 87% 27 NA 29.97 M
1:50 am CST N 15.0 G 20.7 10.00 Fair -- 39.0 33.8 81% 31 NA 29.93 M
12:55 am CST N 12.7 G 20.7 10.00 Fair -- 41.0 33.8 76% 34 NA 29.91 M
11:50 pm CST N 10.4 10.00 Fair -- 34.0 32.0 93% 26 NA 29.88 M

Regional Weather Observation


Ottawa Municipal Airport, KS (KOWI)

Overcast
16.0 F

Coffey County Airport, KS (KUKL)

Fair and Breezy
14.0 F

Lawrence, Lawrence Municipal Airport, KS (KLWC)

Fair
14.0 F

Topeka, Philip Billard Municipal Airport, KS (KTOP)

Fair
14.0 F

Olathe, New Century Aircenter, KS (KIXD)

Fair
13.0 F

Olathe, Johnson County Executive Airport, KS (KOJC)

Fair
14.0 F

Advertise Here


Advertise Here